LHFH 230214Z 33801KT 12/08 Q1022 =

Kék Ég Repülő Sportegyesület


----

Centroplane Repülőiskola


Viharvadász Project

Airport WebCams in Europe